Weather History for LESO - February, 2013

Change the Weather History Date:

Monday, February 11, 2013

  Actual Average Record
Temperature  
Mean Temperature 42 °F -  
Max Temperature 46 °F 55 °F 69 °F (2001)
Min Temperature 39 °F 42 °F 23 °F (2012)
Degree Days  
Heating Degree Days 22    
Moisture  
Dew Point 36 °F    
Average Humidity 75    
Maximum Humidity 87    
Minimum Humidity 62    
Precipitation  
Precipitation 0.00 in - - ()
Sea Level Pressure  
Sea Level Pressure 29.70 in    
Wind  
Wind Speed 14 mph ()    
Max Wind Speed 26 mph    
Max Gust Speed 43 mph    
Visibility 5.1 miles    
Events Rain , Thunderstorm    
Averages and records for this station are not official NWS values.
T = Trace of Precipitation, MM = Missing Value Source: Averaged Metar Reports

Daily Weather History Graph

Daily Weather History Graph

Search for Another Location

Airport or City:

Trip Planner

Search our weather history database for the weather conditions in past years. The results will help you decide how hot, cold, wet, or windy it might be!

Date:

Astronomy

Feb. 11, 2013 Rise Set
Actual Time 8:10 AM CET 6:32 PM CET
Civil Twilight 7:41 AM CET 7:02 PM CET
Nautical Twilight 7:07 AM CET 7:35 PM CET
Astronomical Twilight 6:34 AM CET 8:08 PM CET
Moon 8:23 AM CET (2/11) 8:18 PM CET (2/11)
Length of Visible Light 11h 20m
Length of Day
10h 21m
New Moon, 2% of the Moon is Illuminated
Feb 11
New Moon
Feb 17
First Quarter
Feb 25
Full
Mar 4
Last Quarter
Mar 11
New

Hourly Weather History & Observations

Time (CET) Temp. Windchill Dew Point Humidity Pressure Visibility Wind Dir Wind Speed Gust Speed Precip Events Conditions
5:30 AM 42.8 °F 34.8 °F 35.6 °F 76% 29.68 in 6.2 mi SSW 17.3 mph 31.1 mph N/A   Mostly Cloudy
6:00 AM 42.8 °F 35.8 °F 35.6 °F 76% 29.68 in 6.2 mi SW 13.8 mph 25.3 mph N/A   Mostly Cloudy
6:30 AM 42.8 °F 35.1 °F 35.6 °F 76% 29.68 in 6.2 mi SW 16.1 mph 31.1 mph N/A   Mostly Cloudy
7:00 AM 42.8 °F 35.4 °F 33.8 °F 70% 29.68 in 6.2 mi SW 15.0 mph - N/A   Mostly Cloudy
7:30 AM 42.8 °F 35.4 °F 33.8 °F 70% 29.68 in 6.2 mi SW 15.0 mph - N/A   Scattered Clouds
8:00 AM 41.0 °F 34.3 °F 35.6 °F 81% 29.71 in 6.2 mi SW 11.5 mph - N/A   Scattered Clouds
8:30 AM 42.8 °F 37.0 °F 35.6 °F 76% 29.71 in 6.2 mi SW 10.4 mph - N/A   Mostly Cloudy
9:00 AM 42.8 °F 37.0 °F 35.6 °F 76% 29.71 in 6.2 mi SW 10.4 mph - N/A   Mostly Cloudy
9:30 AM 42.8 °F 37.5 °F 33.8 °F 70% 29.71 in 6.2 mi SW 9.2 mph - N/A   Mostly Cloudy
10:00 AM 42.8 °F 36.6 °F 33.8 °F 70% 29.74 in 6.2 mi SW 11.5 mph - N/A   Mostly Cloudy
10:30 AM 44.6 °F 38.1 °F 33.8 °F 66% 29.74 in 6.2 mi SW 13.8 mph - N/A   Mostly Cloudy
11:00 AM 44.6 °F 38.1 °F 33.8 °F 66% 29.71 in 6.2 mi SW 13.8 mph - N/A   Scattered Clouds
11:30 AM 46.4 °F 40.7 °F 33.8 °F 62% 29.71 in 6.2 mi SW 12.7 mph - N/A   Mostly Cloudy
12:00 PM 46.4 °F 41.1 °F 33.8 °F 62% 29.74 in 6.2 mi WSW 11.5 mph - N/A   Mostly Cloudy
1:00 PM 46.4 °F 40.7 °F 33.8 °F 62% 29.71 in 6.2 mi SW 12.7 mph - N/A   Mostly Cloudy
1:13 PM 46.4 °F 39.8 °F 35.6 °F 66% 29.71 in 3.1 mi SW 16.1 mph 31.1 mph N/A Rain Rain
1:30 PM 42.8 °F 35.4 °F 37.4 °F 81% 29.71 in 3.7 mi WSW 15.0 mph 31.1 mph N/A Rain Light Rain
2:00 PM 42.8 °F 35.1 °F 37.4 °F 81% 29.71 in 3.1 mi SW 16.1 mph 27.6 mph N/A Rain Rain
2:30 PM 41.0 °F 32.2 °F 37.4 °F 87% 29.71 in 2.8 mi SW 18.4 mph 32.2 mph N/A Rain Rain
3:00 PM 41.0 °F 31.9 °F 37.4 °F 87% 29.71 in 3.7 mi SW 19.6 mph - N/A Rain Light Rain
3:13 PM 39.2 °F 29.8 °F 35.6 °F 87% 29.71 in 6.2 mi SSW 18.4 mph - N/A Rain , Thunderstorm Light Thunderstorms and Rain
3:30 PM 41.0 °F 32.5 °F 37.4 °F 87% 29.71 in 6.2 mi SSW 17.3 mph - N/A Rain Light Rain
4:00 PM 41.0 °F 33.1 °F 37.4 °F 87% 29.68 in 6.2 mi SSW 15.0 mph - N/A   Mostly Cloudy
4:30 PM 42.8 °F 34.3 °F 37.4 °F 81% 29.68 in 3.7 mi SSW 19.6 mph 40.3 mph N/A Rain Light Rain Showers
5:00 PM 44.6 °F 36.4 °F 37.4 °F 76% 29.68 in 3.1 mi SW 20.7 mph 32.2 mph N/A Rain Light Rain Showers
5:30 PM 44.6 °F 36.6 °F 39.2 °F 81% 29.68 in 3.1 mi SW 19.6 mph - N/A Rain Light Rain
6:00 PM 46.4 °F 38.7 °F 37.4 °F 71% 29.68 in 6.2 mi SW 20.7 mph 35.7 mph N/A   Mostly Cloudy
6:30 PM 46.4 °F 38.7 °F 35.6 °F 66% 29.68 in 6.2 mi SW 20.7 mph 36.8 mph N/A   Mostly Cloudy
7:00 PM 46.4 °F 38.7 °F 37.4 °F 71% 29.71 in 4.3 mi WSW 20.7 mph 36.8 mph N/A Rain Light Rain
7:30 PM 46.4 °F 39.0 °F 37.4 °F 71% 29.68 in 3.7 mi SW 19.6 mph 36.8 mph N/A Rain Light Rain
8:00 PM 46.4 °F 39.2 °F 37.4 °F 71% 29.68 in 6.2 mi SW 18.4 mph 34.5 mph N/A   Mostly Cloudy
8:19 PM 46.4 °F 37.9 °F 37.4 °F 71% 29.68 in 4.3 mi SW 25.3 mph 42.6 mph N/A Rain , Thunderstorm Light Thunderstorms and Rain
8:30 PM 46.4 °F 38.1 °F 39.2 °F 76% 29.68 in 5.0 mi SW 24.2 mph 42.6 mph N/A Rain , Thunderstorm Light Thunderstorms and Rain
8:49 PM 44.6 °F 37.4 °F 39.2 °F 81% 29.71 in 1.6 mi Variable 16.1 mph - N/A Rain , Thunderstorm Heavy Thunderstorms and Rain
9:00 PM 42.8 °F 32.9 °F 39.2 °F 87% 29.71 in 3.1 mi SW 26.5 mph 41.4 mph N/A Rain , Thunderstorm Light Thunderstorms and Rain
9:30 PM 42.8 °F 35.1 °F 39.2 °F 87% 29.71 in 4.3 mi SW 16.1 mph 29.9 mph N/A Rain , Thunderstorm Light Thunderstorms and Rain